Location: Hebron
(33.0265°N, 96.8636°W)
Time: 14:32:13
(UTC+00:00)

Okean 1 - Pass Details

Date: 06 July 2022
Orbit: 532 x 552 km, 82.5° (Epoch: 18 August)

Event Time Altitude Azimuth Distance (km) Brightness Sun altitude
Rises 08:38:14 0° 11° (NNE) 2,684 7.9 -26.7°
Reaches altitude 10° 08:40:52 10° 29° (NNE) 1,787 6.9 -26.4°
Maximum altitude 08:43:46 20° 77° (ENE) 1,283 5.6 -26.1°
Enters shadow 08:45:30 15° 110° (ESE) 1,480 5.6 -25.9°
